STARLINK-30339, 57882

Orbit data source: Space-Track

STARLINK-30339, 57882 is a payload satellite owned by SpaceX/Seattle (US) in LEO that was launched on Sat, 16 Sep 2023 UTC via an FALCON 9 launch vehicle from the Air Force Eastern Test Range (AFETR). Payload-class satellites include a variety of spacecraft equipped with specific instruments for various scientific and technological missions. These include communications satellites like Starlink; space stations such as the ISS; scientific satellites like the Hubble; Earth observation satellites from companies like Planet Labs, Umbra, and HawkEye 360; GPS; miniature CubeSats for education and research; and military/defense satellites.

Loading next visibility...
Identifier
57882, 2023-144U
Orbit
LEO
Country
Flag of USUS
Related business
Manufacturer
SpaceX/Seattle
Mission
Operational Commercial Communications
Bus & Motor
STARLINK V2M, Unknown motor
Mass
730 kg wet, ~700 kg dry
Launch date (UTC)
2023-09-16 (2 years ago)
Launch vehicle
FALCON 9
Launch site
Air Force Eastern Test Range (AFETR)
Object type
Payload
Rocket body
Debris
Shape & HBR
Box + 2 Pan, 17.7 m
Radar Cross Section
33.884 m², Large (>1 m²)

Expand to show TLE details & history
Last TLE update: 1 day ago

TLE from 1 day ago
0 STARLINK-30339
1 57882U 23144U   25348.40514128  .00000133  00000-0  24923-4 0  9992
2 57882  43.0028  30.7137 0001298 269.2852  90.7842 15.02528785124789
Epoch: 2025-12-14T09:43Z
TLE epoch observation values (Epoch: 2025-12-14T09:43:24.206Z)
Latitude
Longitude
161.54431°
Altitude
558.892 km
Speed
7.584 km/s
True Right ascension
02h 02m 51s
True Declination
0° 00' 00"
Sunlit
Object was in full shadow at epoch
Visualization orbit readout
Latitude
Unknown
Longitude
Unknown
Altitude
Unknown
Speed
Unknown
Apparent Right ascension
Unknown
Apparent Declination
Unknown
Sunlit
N/A
Visualization observer readout
Local Sidereal Time
13:19:53
Azimuth
Unknown
Elevation
Unknown
Doppler factor
Unknown
Orbital elements
Apogee altitude
561.926 km
Perigee altitude
560.125 km
Semi-major axis
6,939.162 km
Eccentricity
0.00013
Inclination
43.0028°
RAAN
30.7137°
Arg. of periapsis
269.2852°
True anomaly
90.79907°
Mean anomaly
90.7842°
Eccentric anomaly
90.79164°
Mean motion
3.75476 °/min
Orbital period
95.88 mins
BSTAR
0.000024923
Loading maneuver chart data...
Computing Atmospheric mass density...
Loading historical data...
Loading historical data...
Loading historical data...
Loading historical data...
Loading historical data...
Loading historical data...
Loading historical data...

Documentation

Showing up to 5 results
|